Tracking 35280 objects as of 7-Sep-2026
HD Live streaming from Space Station
objects crossing your sky now

NOAA 17 DEB


NOAA 17 DEB is no longer on orbit


NORAD ID: 48163
Int'l Code: 2002-032D
Launch date: June 24, 2002
Source: United States (US)
Launch site: AIR FORCE WESTERN TEST RANGE (AFWTR)
Decay date: 2024-06-12

Note: This is SATELLITE DEBRIS
Your satellite tracking list
Your tracking list is empty




NASA's NSSDC Master Catalog

Two Line Element Set (TLE):
1 48163U 02032D   23323.14343620  .00032402  00000-0  54872-2 0  9994
2 48163  98.5818 291.7674 0059113 352.2613   7.7673 14.68036130138048
Source of the keplerian elements: AFSPC